Snowfall_Accumulation
0.0 0.0 0.0 0.0 0.0 0.0 0.0 0.0 0.0 0.0 0.0 0.0 0.0 0.0 0.0 0.0 0.0 0.0 0.0 0.0 0.0 0.0 0.0 0.0 0.0 0.0 0.0 0.0 0.0 0.0 0.0 0.0 0.0 0.0 0.0 0.0 0.0 0.0 0.0 0.0 0.0 0.0 0.0
0.0 0.0 0.0 0.0 0.0 0.0 0.0 0.0 0.0 0.0 0.0 0.0 0.0 0.0 0.0 0.0 0.0 0.0 0.0 0.0 0.0 0.0 0.0 0.0 0.0 0.0 0.0 0.0 0.0 0.0 0.0 0.0 0.0 0.0 0.0 0.0 0.0 0.0 0.0 0.0 0.0 0.0 0.0
0.0 0.0 0.0 0.0 0.0 0.0 0.0 0.0 0.0 0.0 0.0 0.0 0.0 0.0 0.0 0.0 0.0 0.0 0.0 0.0 0.0 0.0 0.0 0.0 0.0 0.0 0.0 0.0 0.0 0.0 0.0 0.0 0.0 0.0 0.0 0.0 0.0 0.0 0.0 0.0 0.0 0.0 0.0
0.0 0.0 0.0 0.0 0.0 0.0 0.0 0.0 0.0 0.0 0.0 0.0 0.0 0.0 0.0 0.0 0.0 0.0 0.0 0.0 0.0 0.0 0.0 0.0 0.0 0.0 0.0 0.0 0.0 0.0 0.0 0.0 0.0 0.0 0.0 0.1 0.1 0.3 0.2 0.3 0.6 0.4 0.5
0.0 0.0 0.0 0.0 0.0 0.0 0.0 0.0 0.0 0.0 0.0 0.0 0.0 0.0 0.0 0.0 0.0 0.0 0.0 0.0 0.0 0.0 0.0 0.0 0.0 0.0 nan nan 0.0 0.0 0.0 0.0 0.0 0.1 0.2 0.2 0.4 0.7 0.6 0.5 0.9 1.1 1.1
0.0 0.0 0.0 0.0 0.0 0.0 0.0 0.0 0.0 0.0 0.0 0.0 0.0 0.0 0.0 0.0 nan nan 0.0 0.0 0.0 0.0 0.0 0.0 0.0 0.0 0.0 nan nan nan nan 0.0 0.0 0.2 0.2 0.1 0.0 0.3 0.6 0.9 1.1 2.9 2.8
0.0 0.0 0.0 0.0 0.0 0.0 0.0 0.0 0.0 0.0 0.0 0.0 0.0 0.0 0.0 0.0 nan nan nan 0.0 0.0 0.0 0.0 0.0 0.0 0.0 0.0 0.0 nan nan nan nan nan 0.0 0.0 0.0 0.0 0.0 0.1 0.9 0.6 0.9 1.0
0.0 0.0 0.0 0.0 0.1 0.1 0.1 0.0 0.0 0.0 0.0 0.0 0.0 0.0 0.0 0.0 nan nan nan 0.0 0.0 0.0 0.0 0.0 0.0 0.0 0.0 0.0 0.0 0.0 0.0 0.0 0.0 0.0 0.0 0.0 0.0 0.0 0.0 0.0 0.1 0.6 1.9
0.0 0.0 0.0 0.0 0.1 0.1 0.0 0.0 0.0 0.0 0.0 0.0 0.0 0.0 0.0 0.0 nan nan 0.0 0.0 0.0 0.0 0.0 0.0 0.0 0.0 nan nan 0.0 0.1 0.2 0.1 nan nan nan nan nan nan nan 0.5 4.5 5.8 5.8
0.1 0.1 0.0 0.0 0.0 0.0 0.1 0.1 0.1 0.1 0.1 0.4 0.1 0.1 0.0 0.0 nan nan nan 0.2 0.1 0.4 0.1 0.1 0.0 0.0 nan nan 0.0 0.1 1.0 0.3 0.2 0.5 0.1 0.0 nan nan nan 0.0 0.6 4.5 4.6
0.1 0.1 0.1 0.1 0.1 0.0 0.1 0.1 0.1 0.1 0.1 0.1 0.2 0.1 0.1 0.1 0.0 nan nan 0.1 0.4 0.7 0.7 0.7 0.5 nan nan nan nan 0.1 0.2 0.2 1.1 1.3 1.4 1.3 0.9 0.6 0.9 0.5 0.2 0.7 3.8
0.3 0.3 0.3 0.3 0.1 0.1 0.2 0.2 0.4 0.2 0.2 0.5 0.5 0.7 0.9 0.2 nan nan nan nan nan 0.6 0.5 0.8 0.6 nan nan nan 0.2 nan nan 1.2 2.5 3.5 3.7 3.7 3.5 3.9 3.5 2.9 1.6 1.6 2.3
1.0 1.6 1.2 1.2 0.7 0.5 0.4 0.4 1.1 0.5 1.0 0.5 1.3 1.2 1.0 1.3 0.8 nan nan nan nan 1.0 0.8 0.6 nan nan nan nan nan nan 1.1 2.4 3.5 5.9 4.7 3.7 3.7 5.1 5.1 6.4 5.0 5.6 5.1
1.6 1.1 0.9 0.9 0.8 0.9 1.2 1.0 1.3 1.3 1.3 1.7 2.0 1.8 1.5 1.7 1.3 1.0 1.1 0.7 0.8 1.2 nan 1.0 nan 0.9 nan nan 1.5 1.8 3.2 3.3 3.9 4.6 5.0 5.4 5.5 7.5 9.0 6.7 9.5 9.1 13.5
1.1 0.9 0.9 1.2 0.8 0.9 1.3 1.1 1.2 0.6 1.1 2.2 2.6 1.9 3.0 3.3 2.3 0.9 1.8 2.5 2.2 2.3 2.9 4.2 4.6 3.9 4.3 4.3 5.5 5.9 5.8 6.3 7.5 7.7 10.2 10.3 10.3 10.3 11.7 9.9 11.1 13.7 14.2
0.8 1.8 1.3 1.2 1.2 1.3 1.5 1.7 nan nan nan nan nan 2.0 3.2 nan nan nan nan nan nan nan 8.0 9.7 6.5 5.9 5.5 6.1 7.8 8.4 8.1 6.9 7.5 9.0 10.5 10.9 12.6 12.7 13.8 15.5 13.3 14.9 16.6
1.2 0.8 1.7 1.8 1.7 2.3 2.8 2.7 3.8 2.8 nan nan nan nan nan nan nan nan nan nan nan nan 13.2 8.3 7.9 6.6 6.8 6.6 7.5 7.7 10.4 8.3 8.1 10.1 9.8 12.1 13.0 14.7 16.4 17.0 14.2 13.4 16.7
2.4 2.2 2.4 2.3 2.1 2.8 3.2 3.4 3.6 4.2 5.2 4.5 nan nan nan nan nan nan nan nan 13.4 nan 9.8 11.4 10.9 9.4 8.5 8.7 8.2 9.0 10.4 11.7 11.3 11.2 11.6 14.3 16.3 17.7 19.3 18.1 16.2 17.8 16.3
3.5 2.8 3.0 3.1 3.3 3.2 4.0 4.0 4.1 4.3 4.8 5.9 5.8 5.8 3.9 nan nan nan nan 8.4 12.5 11.7 11.3 11.8 10.2 10.8 10.1 10.2 10.5 12.6 12.1 14.1 14.0 16.6 16.4 17.7 17.2 18.0 19.6 15.9 15.0 9.8 10.4
4.8 3.6 3.7 5.0 5.0 4.8 3.9 5.0 5.0 5.2 6.1 6.7 6.9 6.5 7.3 7.3 11.1 12.1 10.4 12.4 12.3 11.3 10.3 11.2 11.8 13.1 14.0 13.8 14.4 14.6 16.1 17.7 16.9 17.4 17.4 16.9 16.5 17.5 14.5 17.7 17.3 16.6 17.0
5.9 5.9 3.7 5.7 7.0 7.4 7.7 7.1 6.3 7.6 7.2 7.6 6.5 5.4 nan 7.5 8.9 9.8 11.7 11.1 12.2 13.0 11.0 11.8 13.1 16.1 17.9 20.0 18.0 17.9 17.3 13.4 16.2 17.5 18.4 19.0 19.2 23.1 15.5 12.3 15.9 17.5 17.4
6.4 7.3 8.0 8.4 6.8 7.9 8.4 6.0 6.6 6.5 7.2 7.1 6.4 6.5 nan 7.1 7.6 7.6 8.0 10.0 11.3 11.0 12.2 14.6 15.7 17.7 16.3 16.1 16.0 15.2 13.7 16.0 17.4 17.2 16.0 16.8 19.9 18.6 18.4 14.6 15.4 14.7 17.7
5.8 5.7 6.0 6.2 6.2 5.2 8.3 8.6 9.6 9.1 8.5 8.9 8.0 8.6 9.1 10.7 9.0 8.6 11.0 11.0 9.3 9.3 10.1 10.5 10.0 10.6 9.7 11.6 10.7 10.8 12.7 14.3 14.7 18.7 15.2 17.0 17.8 20.2 18.6 17.8 16.6 18.8 18.5
6.1 6.6 6.6 7.8 8.5 8.8 10.7 11.7 10.1 5.6 10.0 10.1 13.2 10.9 7.2 8.6 11.0 8.7 8.3 9.1 7.3 12.2 9.1 10.0 8.3 8.2 9.4 14.3 17.9 17.5 18.8 19.8 19.9 19.0 18.3 15.5 16.5 15.2 17.2 18.8 15.9 15.4 14.3
7.7 8.0 8.5 8.5 11.6 10.1 9.8 11.7 8.6 10.6 11.8 9.1 10.9 8.3 8.1 7.7 8.5 10.6 9.5 8.3 9.4 8.7 7.5 7.2 7.1 7.5 8.0 8.9 12.3 15.0 15.4 4.7 12.0 5.1 17.5 14.3 17.4 18.6 19.8 18.2 17.4 16.0 14.7
6.9 7.4 7.9 8.3 8.6 9.0 9.6 9.5 9.7 7.7 9.8 10.0 9.2 9.1 8.0 8.3 8.0 9.3 9.4 9.7 8.4 8.2 8.5 8.6 8.1 7.5 7.3 7.7 8.3 5.6 4.4 4.1 14.9 4.7 16.5 15.4 18.2 17.7 18.1 19.1 19.3 19.3 16.6
Water_Equivalent
0.00 0.00 0.00 0.00 0.00 0.00 0.00 0.00 0.00 0.00 0.00 0.00 0.00 0.00 0.00 0.00 0.00 0.00 0.00 0.00 0.00 0.00 0.00 0.00 0.00 0.00 0.00 0.00 0.00 0.00 0.00 0.00 0.00 0.00 0.00 0.00 0.00 0.00 0.00 0.00 0.00 0.00 0.00
0.00 0.00 0.00 0.00 0.00 0.00 0.00 0.00 0.00 0.00 0.00 0.00 0.00 0.00 0.00 0.00 0.00 0.00 0.00 0.00 0.00 0.00 0.00 0.00 0.00 0.00 0.00 0.00 0.00 0.00 0.00 0.00 0.00 0.00 0.00 0.00 0.00 0.00 0.00 0.00 0.00 0.00 0.00
0.00 0.00 0.00 0.00 0.00 0.00 0.00 0.00 0.00 0.00 0.00 0.00 0.00 0.00 0.00 0.00 0.00 0.00 0.00 0.00 0.00 0.00 0.00 0.00 0.00 0.00 0.00 0.00 0.00 0.00 0.00 0.00 0.00 0.00 0.00 0.00 0.00 0.00 0.00 0.01 0.00 0.00 0.00
0.00 0.00 0.00 0.00 0.00 0.00 0.00 0.00 0.00 0.00 0.00 0.00 0.00 0.00 0.00 0.00 0.00 0.00 0.00 0.00 0.00 0.00 0.00 0.00 0.00 0.00 0.00 0.00 0.00 0.00 0.00 0.00 0.00 0.00 0.01 0.02 0.05 0.13 0.07 0.13 0.24 0.18 0.19
0.00 0.00 0.00 0.00 0.00 0.00 0.00 0.00 0.00 0.00 0.00 0.00 0.00 0.00 0.00 0.00 0.00 0.00 0.00 0.00 0.00 0.00 0.00 0.00 0.00 0.00 nan nan 0.00 0.00 0.00 0.00 0.00 0.03 0.06 0.09 0.17 0.29 0.23 0.22 0.35 0.42 0.43
0.00 0.00 0.00 0.00 0.00 0.00 0.00 0.00 0.00 0.00 0.00 0.00 0.00 0.00 0.00 0.00 nan nan 0.00 0.00 0.00 0.00 0.00 0.00 0.00 0.00 0.00 nan nan nan nan 0.00 0.00 0.07 0.07 0.05 0.01 0.13 0.22 0.37 0.45 1.07 0.96
0.00 0.01 0.00 0.01 0.00 0.00 0.00 0.00 0.00 0.00 0.00 0.00 0.00 0.00 0.00 0.00 nan nan nan 0.00 0.00 0.00 0.00 0.00 0.00 0.00 0.00 0.00 nan nan nan nan nan 0.00 0.00 0.02 0.02 0.00 0.02 0.36 0.26 0.36 0.41
0.00 0.00 0.00 0.00 0.03 0.03 0.04 0.01 0.00 0.00 0.00 0.00 0.00 0.00 0.00 0.00 nan nan nan 0.00 0.00 0.00 0.00 0.00 0.00 0.00 0.00 0.00 0.00 0.00 0.00 0.00 0.00 0.00 0.00 0.00 0.00 0.00 0.00 0.00 0.02 0.21 0.60
0.02 0.00 0.01 0.01 0.03 0.02 0.02 0.02 0.01 0.00 0.00 0.00 0.00 0.00 0.00 0.00 nan nan 0.00 0.00 0.00 0.00 0.00 0.00 0.00 0.00 nan nan 0.00 0.03 0.08 0.03 nan nan nan nan nan nan nan 0.21 1.80 2.16 1.53
0.02 0.02 0.01 0.02 0.02 0.02 0.02 0.03 0.04 0.03 0.03 0.16 0.02 0.03 0.01 0.01 nan nan nan 0.09 0.02 0.15 0.03 0.03 0.01 0.00 nan nan 0.01 0.05 0.38 0.10 0.09 0.19 0.05 0.01 nan nan nan 0.00 0.26 1.69 1.23
0.04 0.03 0.03 0.03 0.03 0.01 0.03 0.03 0.03 0.04 0.04 0.05 0.07 0.05 0.05 0.02 0.00 nan nan 0.04 0.15 0.26 0.29 0.30 0.20 nan nan nan nan 0.04 0.06 0.09 0.42 0.52 0.52 0.53 0.35 0.24 0.35 0.21 0.06 0.29 1.16
0.08 0.09 0.09 0.10 0.05 0.04 0.08 0.06 0.17 0.06 0.09 0.19 0.21 0.28 0.35 0.06 nan nan nan nan nan 0.23 0.19 0.33 0.22 nan nan nan 0.10 nan nan 0.43 0.99 1.30 1.18 1.10 0.98 1.01 0.92 0.72 0.38 0.38 0.50
0.27 0.46 0.40 0.38 0.28 0.21 0.14 0.15 0.45 0.18 0.41 0.18 0.49 0.45 0.36 0.40 0.30 nan nan nan nan 0.40 0.31 0.26 nan nan nan nan nan nan 0.36 0.84 1.16 1.66 1.24 0.90 0.87 1.01 0.87 0.99 0.76 0.87 0.81
0.51 0.30 0.24 0.28 0.26 0.30 0.46 0.42 0.52 0.53 0.53 0.66 0.74 0.65 0.49 0.52 0.47 0.41 0.46 0.27 0.29 0.48 nan 0.39 nan 0.35 nan nan 0.53 0.61 0.94 0.95 1.05 1.16 1.15 0.99 1.01 1.39 1.56 1.18 1.48 1.46 2.02
0.31 0.21 0.23 0.38 0.27 0.26 0.33 0.44 0.45 0.21 0.45 0.88 1.04 0.77 1.09 1.15 0.83 0.35 0.71 0.99 0.88 0.93 1.09 1.60 1.47 1.13 1.15 1.12 1.43 1.45 1.39 1.47 1.62 1.66 1.83 1.71 1.69 1.71 1.73 1.59 1.69 2.02 2.14
0.18 0.45 0.38 0.39 0.39 0.38 0.44 0.52 nan nan nan nan nan 0.77 1.23 nan nan nan nan nan nan nan 2.79 2.96 1.68 1.52 1.32 1.41 1.69 1.70 1.67 1.56 1.59 1.83 1.99 1.93 2.03 1.91 1.92 2.14 2.02 2.20 2.32
0.30 0.20 0.47 0.47 0.48 0.60 0.75 0.80 0.95 0.87 nan nan nan nan nan nan nan nan nan nan nan nan 4.43 2.48 2.19 1.69 1.67 1.56 1.71 1.72 1.78 1.59 1.53 1.90 1.80 1.97 2.10 2.30 2.41 2.26 1.98 1.88 2.42
0.51 0.71 0.64 0.63 0.63 0.76 0.86 0.93 0.98 1.09 1.32 1.19 nan nan nan nan nan nan nan nan 4.20 nan 3.28 3.44 3.02 2.51 2.13 1.99 1.79 1.78 1.81 1.90 1.77 1.83 1.93 2.45 2.77 2.96 2.81 2.60 2.21 2.59 2.39
0.78 0.71 0.77 0.82 0.89 0.89 1.04 1.01 1.02 1.09 1.18 1.47 1.54 1.69 1.27 nan nan nan nan 2.77 3.72 3.31 3.21 3.35 2.77 2.68 2.34 2.39 2.31 2.54 2.22 2.30 2.26 2.85 2.83 3.08 2.91 3.05 3.04 2.34 2.01 1.84 1.88
1.06 1.13 1.00 1.25 1.20 1.13 0.93 1.16 1.16 1.20 1.39 1.59 1.72 1.68 2.43 2.39 3.36 3.56 2.85 3.71 3.51 3.11 2.79 3.03 3.18 3.51 3.51 3.23 3.21 3.00 3.04 3.17 2.85 2.93 2.91 2.80 2.67 2.89 2.11 2.76 2.50 2.14 2.31
1.40 1.35 1.21 1.31 1.63 1.70 1.78 1.56 1.39 1.77 1.68 1.85 1.60 1.62 nan 2.05 2.31 2.55 3.05 2.86 3.19 3.42 2.83 3.08 3.28 4.16 4.31 4.75 3.94 3.77 3.52 2.33 2.83 3.08 3.30 3.23 3.15 3.90 2.41 1.67 2.31 2.56 2.48
1.47 1.70 1.79 1.89 1.50 1.67 1.82 1.32 1.47 1.49 1.44 1.37 1.27 1.50 nan 1.60 1.74 1.83 1.96 2.61 3.00 2.94 3.30 3.98 3.94 4.35 3.86 3.62 3.31 3.07 2.55 3.03 3.33 3.17 2.62 2.71 3.25 2.87 2.87 2.03 2.12 1.89 2.48
1.26 1.16 1.26 1.31 1.32 1.50 1.75 1.96 1.81 1.74 1.62 1.75 1.60 1.71 1.89 2.24 1.85 1.71 2.58 2.77 2.21 2.07 2.32 2.45 2.27 2.28 2.07 2.45 2.15 2.10 2.34 2.67 2.76 3.84 2.61 2.76 2.74 3.16 2.85 2.58 2.29 2.57 2.45
1.28 1.35 1.31 1.62 1.56 1.51 1.87 2.04 1.78 1.61 1.83 1.87 2.78 2.25 1.36 1.66 2.32 1.70 1.65 2.02 1.63 2.99 2.03 2.19 1.74 1.71 1.94 3.16 4.14 4.05 4.40 4.64 4.49 4.06 3.71 2.51 2.51 2.29 2.30 2.66 2.08 2.02 1.68
1.48 1.37 1.45 1.41 2.11 1.73 1.66 2.03 1.39 1.88 2.18 1.64 2.09 1.50 1.50 1.40 1.57 2.21 1.97 1.56 1.79 1.65 1.39 1.38 1.42 1.54 1.62 1.77 2.56 3.37 3.60 1.55 2.74 1.68 3.30 2.29 2.77 2.81 2.73 2.38 2.20 1.90 1.71
1.17 1.26 1.33 1.39 1.40 1.53 1.62 1.56 1.61 1.24 1.67 1.80 1.66 1.68 1.42 1.45 1.43 1.76 1.67 1.70 1.38 1.38 1.45 1.55 1.50 1.39 1.33 1.47 1.62 1.68 1.45 1.36 3.02 1.56 2.90 2.44 2.74 2.46 2.41 2.48 2.35 2.29 1.89
SL_Ratio
nan nan nan nan nan nan nan nan nan nan nan nan nan nan nan nan nan nan nan nan nan nan nan nan nan nan nan nan nan nan nan nan nan nan nan nan nan nan nan nan nan nan nan
nan nan nan nan nan nan nan nan nan nan nan nan nan nan nan nan nan nan nan nan nan nan nan nan nan nan nan nan nan nan nan nan nan nan nan nan nan nan nan nan nan nan nan
nan nan nan nan nan nan nan nan nan nan nan nan nan nan nan nan nan nan nan nan nan nan nan nan nan nan nan nan nan nan nan nan nan nan nan nan 2.5 nan 2.0 2.4 nan nan nan
nan nan nan nan nan nan nan nan nan nan nan nan nan nan nan nan nan nan nan nan nan nan nan nan nan nan nan nan nan nan nan nan nan nan 2.3 2.5 2.5 2.5 2.5 2.5 2.5 2.5 2.5
nan nan nan nan nan nan nan nan nan nan nan nan nan nan nan nan nan nan nan nan nan nan nan nan nan nan nan nan nan nan nan nan 2.5 2.4 2.5 2.5 2.5 2.5 2.5 2.5 2.5 2.5 2.5
nan nan nan nan nan nan nan nan nan nan nan nan nan nan nan nan nan nan nan nan nan nan nan nan nan nan nan nan nan nan nan nan nan 2.5 2.5 2.5 2.7 2.5 2.5 2.5 2.5 2.7 2.9
nan 2.6 2.5 2.6 2.1 2.5 2.5 nan nan nan nan nan nan nan nan nan nan nan nan nan nan nan nan nan nan nan 1.7 nan nan nan nan nan nan nan nan 2.6 2.5 3.3 2.5 2.5 2.5 2.5 2.5
nan nan nan nan 2.5 2.5 2.5 2.2 2.5 nan 2.0 nan nan nan nan nan nan nan nan nan nan nan nan nan nan nan nan nan nan nan 0.0 nan nan nan nan nan nan nan nan 0.0 2.6 2.9 3.1
2.4 3.3 2.7 2.7 2.4 2.5 2.4 2.5 2.5 nan 0.0 nan nan nan nan nan nan nan nan nan nan nan nan nan nan nan nan nan 5.0 2.5 2.5 2.5 nan nan nan nan nan nan nan 2.5 2.5 2.7 3.8
2.8 2.4 2.5 2.5 2.4 2.5 2.6 2.5 2.5 2.6 2.5 2.5 2.4 2.5 2.5 2.8 nan nan nan 2.5 2.4 2.5 2.4 2.5 2.5 nan nan nan 2.5 2.5 2.5 2.8 2.5 2.5 2.5 2.6 nan nan nan 2.5 2.5 2.7 3.7
2.8 2.5 2.5 2.6 2.5 2.6 2.5 2.5 2.5 2.5 2.5 2.5 2.5 2.5 2.5 2.6 nan nan nan 2.5 2.5 2.5 2.5 2.5 2.5 nan nan nan nan 2.5 2.5 2.5 2.5 2.5 2.6 2.5 2.6 2.6 2.6 2.6 2.6 2.5 3.3
3.5 3.3 3.1 2.6 2.5 2.5 2.5 2.5 2.5 2.5 2.5 2.5 2.5 2.6 2.5 2.5 nan nan nan nan nan 2.5 2.5 2.5 2.5 nan nan nan 2.5 nan nan 2.8 2.5 2.7 3.1 3.4 3.5 3.8 3.8 4.0 4.3 4.1 4.6
3.7 3.4 3.1 3.1 2.6 2.5 2.5 2.5 2.5 2.5 2.5 2.6 2.6 2.6 2.9 3.1 2.5 nan nan nan nan 2.5 2.5 2.5 nan nan nan nan nan nan 3.0 2.8 3.0 3.5 3.8 4.1 4.2 5.1 5.9 6.5 6.7 6.4 6.3
3.1 3.8 3.7 3.3 3.1 2.9 2.6 2.5 2.5 2.5 2.5 2.6 2.7 2.7 3.0 3.3 2.8 2.5 2.5 2.5 2.8 2.5 nan 2.5 nan 2.5 nan nan 2.8 2.9 3.4 3.4 3.7 3.9 4.4 5.4 5.5 5.4 5.8 5.7 6.4 6.2 6.7
3.5 4.5 3.7 3.2 2.8 3.3 3.9 2.5 2.6 2.7 2.5 2.5 2.5 2.5 2.7 2.9 2.8 2.5 2.5 2.5 2.5 2.5 2.7 2.6 3.1 3.4 3.7 3.8 3.9 4.0 4.1 4.3 4.6 4.7 5.5 6.0 6.1 6.0 6.7 6.2 6.6 6.8 6.7
4.3 4.1 3.3 3.1 3.2 3.4 3.3 3.3 nan nan nan nan nan 2.6 2.6 nan nan nan nan nan nan nan 2.9 3.3 3.9 3.9 4.1 4.3 4.6 5.0 4.9 4.4 4.7 4.9 5.2 5.6 6.2 6.7 7.2 7.2 6.6 6.8 7.1
4.0 4.1 3.7 3.9 3.5 3.8 3.8 3.4 4.0 3.2 nan nan nan nan nan nan nan nan nan nan nan nan 3.0 3.3 3.6 3.9 4.1 4.3 4.4 4.5 5.8 5.2 5.3 5.3 5.4 6.1 6.2 6.4 6.8 7.5 7.2 7.1 6.9
4.6 3.0 3.7 3.6 3.4 3.7 3.8 3.7 3.7 3.8 3.9 3.8 nan nan nan nan nan nan nan nan 3.2 nan 3.0 3.3 3.6 3.7 4.0 4.4 4.6 5.1 5.7 6.1 6.3 6.1 6.0 5.8 5.9 6.0 6.9 7.0 7.3 6.9 6.8
4.5 4.0 3.9 3.7 3.7 3.6 3.8 4.0 4.0 4.0 4.1 4.0 3.8 3.4 3.1 nan nan nan nan 3.1 3.4 3.5 3.5 3.5 3.7 4.0 4.3 4.3 4.6 5.0 5.4 6.1 6.2 5.8 5.8 5.7 5.9 5.9 6.4 6.8 7.5 5.3 5.5
4.5 3.2 3.7 4.0 4.2 4.2 4.2 4.3 4.3 4.4 4.4 4.2 4.0 3.9 3.0 3.1 3.3 3.4 3.7 3.3 3.5 3.6 3.7 3.7 3.7 3.7 4.0 4.3 4.5 4.8 5.3 5.6 5.9 5.9 6.0 6.0 6.2 6.1 6.9 6.4 6.9 7.7 7.3
4.3 4.4 3.0 4.3 4.3 4.4 4.3 4.6 4.5 4.3 4.3 4.1 4.1 3.3 nan 3.7 3.9 3.8 3.8 3.9 3.8 3.8 3.9 3.8 4.0 3.9 4.2 4.2 4.6 4.7 4.9 5.7 5.7 5.7 5.6 5.9 6.1 5.9 6.4 7.3 6.9 6.8 7.0
4.3 4.3 4.5 4.5 4.6 4.7 4.6 4.6 4.5 4.4 5.0 5.2 5.0 4.4 nan 4.4 4.4 4.2 4.1 3.8 3.8 3.7 3.7 3.7 4.0 4.1 4.2 4.4 4.8 4.9 5.4 5.3 5.2 5.4 6.1 6.2 6.1 6.5 6.4 7.2 7.2 7.8 7.1
4.6 4.9 4.8 4.8 4.7 3.5 4.8 4.4 5.3 5.2 5.2 5.1 5.0 5.0 4.8 4.8 4.9 5.0 4.3 4.0 4.2 4.5 4.4 4.3 4.4 4.6 4.7 4.8 5.0 5.1 5.4 5.4 5.3 4.9 5.8 6.1 6.5 6.4 6.5 6.9 7.3 7.3 7.6
4.8 4.9 5.0 4.8 5.5 5.8 5.7 5.7 5.6 3.5 5.4 5.4 4.7 4.8 5.3 5.2 4.7 5.1 5.0 4.5 4.5 4.1 4.5 4.6 4.8 4.8 4.9 4.5 4.3 4.3 4.3 4.3 4.4 4.7 5.0 6.2 6.6 6.6 7.5 7.0 7.6 7.6 8.5
5.2 5.9 5.8 6.0 5.5 5.8 5.9 5.8 6.2 5.7 5.4 5.5 5.2 5.5 5.4 5.5 5.4 4.8 4.8 5.3 5.2 5.3 5.4 5.2 5.0 4.9 4.9 5.0 4.8 4.4 4.3 3.0 4.4 3.0 5.3 6.2 6.3 6.6 7.2 7.6 7.9 8.4 8.6
5.9 5.8 6.0 6.0 6.1 5.9 6.0 6.1 6.0 6.3 5.9 5.6 5.6 5.4 5.6 5.8 5.6 5.3 5.6 5.7 6.1 5.9 5.8 5.6 5.4 5.4 5.5 5.3 5.1 3.3 3.0 3.0 4.9 3.0 5.7 6.3 6.7 7.2 7.5 7.7 8.2 8.4 8.8